owner,sensor,date,latitude,longitude,air_pressure(mBar),qcFlag 
WAVCIS,ioos:station:WAVCIS:CSI15:1,2009-12-01T00:00:00Z,28.8332,-90.8320,1013.02,11111222 
WAVCIS,ioos:station:WAVCIS:CSI15:1,2009-12-01T01:00:00Z,28.8332,-90.8320,1013.08,11111222 
WAVCIS,ioos:station:WAVCIS:CSI15:1,2009-12-01T02:00:00Z,28.8332,-90.8320,1014.57,11111222 
WAVCIS,ioos:station:WAVCIS:CSI15:1,2009-12-01T03:00:00Z,28.8332,-90.8320,1014.44,11111222 
WAVCIS,ioos:station:WAVCIS:CSI15:1,2009-12-01T04:00:00Z,28.8332,-90.8320,1014.77,11111222 
WAVCIS,ioos:station:WAVCIS:CSI15:1,2009-12-01T05:00:00Z,28.8332,-90.8320,1013.98,11111222 
WAVCIS,ioos:station:WAVCIS:CSI15:1,2009-12-01T06:00:00Z,28.8332,-90.8320,1013.68,11111222 
WAVCIS,ioos:station:WAVCIS:CSI15:1,2009-12-01T07:00:00Z,28.8332,-90.8320,1012.48,11111222 
WAVCIS,ioos:station:WAVCIS:CSI15:1,2009-12-01T08:00:00Z,28.8332,-90.8320,1012.22,11111222 
WAVCIS,ioos:station:WAVCIS:CSI15:1,2009-12-01T09:00:00Z,28.8332,-90.8320,1012.24,11111222 
WAVCIS,ioos:station:WAVCIS:CSI15:1,2009-12-01T10:00:00Z,28.8332,-90.8320,1012.23,11111222 
WAVCIS,ioos:station:WAVCIS:CSI15:1,2009-12-01T11:00:00Z,28.8332,-90.8320,1011.51,11111222 
WAVCIS,ioos:station:WAVCIS:CSI15:1,2009-12-01T12:00:00Z,28.8332,-90.8320,1010.88,11111222 
WAVCIS,ioos:station:WAVCIS:CSI15:1,2009-12-01T13:00:00Z,28.8332,-90.8320,1009.87,11111222 
WAVCIS,ioos:station:WAVCIS:CSI15:1,2009-12-01T14:00:00Z,28.8332,-90.8320,1010.94,11111222 
WAVCIS,ioos:station:WAVCIS:CSI15:1,2009-12-01T15:00:00Z,28.8332,-90.8320,1009.75,11111222 
WAVCIS,ioos:station:WAVCIS:CSI15:1,2009-12-01T16:00:00Z,28.8332,-90.8320,1010.31,11111222 
WAVCIS,ioos:station:WAVCIS:CSI15:1,2009-12-01T17:00:00Z,28.8332,-90.8320,1008.76,11111222 
WAVCIS,ioos:station:WAVCIS:CSI15:1,2009-12-01T18:00:00Z,28.8332,-90.8320,1007.128,11111222 
WAVCIS,ioos:station:WAVCIS:CSI15:1,2009-12-01T19:00:00Z,28.8332,-90.8320,1003.497,11111222 
WAVCIS,ioos:station:WAVCIS:CSI15:1,2009-12-01T20:00:00Z,28.8332,-90.8320,1002.503,11111222 
WAVCIS,ioos:station:WAVCIS:CSI15:1,2009-12-01T21:00:00Z,28.8332,-90.8320,1002.11,11111222 
WAVCIS,ioos:station:WAVCIS:CSI15:1,2009-12-01T22:00:00Z,28.8332,-90.8320,1000.854,11111222 
WAVCIS,ioos:station:WAVCIS:CSI15:1,2009-12-01T23:00:00Z,28.8332,-90.8320,999.543,11111222 
WAVCIS,ioos:station:WAVCIS:CSI15:1,2009-12-02T00:00:00Z,28.8332,-90.8320,999.917,11111222 
WAVCIS,ioos:station:WAVCIS:CSI15:1,2009-12-02T01:00:00Z,28.8332,-90.8320,999.832,11111222 
WAVCIS,ioos:station:WAVCIS:CSI15:1,2009-12-02T02:00:00Z,28.8332,-90.8320,999.209,11111222 
WAVCIS,ioos:station:WAVCIS:CSI15:1,2009-12-02T03:00:00Z,28.8332,-90.8320,1000.237,11111222 
WAVCIS,ioos:station:WAVCIS:CSI15:1,2009-12-02T04:00:00Z,28.8332,-90.8320,999.12,11111222 
WAVCIS,ioos:station:WAVCIS:CSI15:1,2009-12-02T05:00:00Z,28.8332,-90.8320,998.808,11111222 
WAVCIS,ioos:station:WAVCIS:CSI15:1,2009-12-02T06:00:00Z,28.8332,-90.8320,997.272,11111222 
WAVCIS,ioos:station:WAVCIS:CSI15:1,2009-12-02T07:00:00Z,28.8332,-90.8320,997.167,11111222 
WAVCIS,ioos:station:WAVCIS:CSI15:1,2009-12-02T08:00:00Z,28.8332,-90.8320,997.051,11111222 
WAVCIS,ioos:station:WAVCIS:CSI15:1,2009-12-02T09:00:00Z,28.8332,-90.8320,998.748,11111222 
WAVCIS,ioos:station:WAVCIS:CSI15:1,2009-12-02T10:00:00Z,28.8332,-90.8320,995.966,11111222 
WAVCIS,ioos:station:WAVCIS:CSI15:1,2009-12-02T11:00:00Z,28.8332,-90.8320,998.182,11111222 
WAVCIS,ioos:station:WAVCIS:CSI15:1,2009-12-02T12:00:00Z,28.8332,-90.8320,999.181,11111222 
WAVCIS,ioos:station:WAVCIS:CSI15:1,2009-12-02T13:00:00Z,28.8332,-90.8320,1000.425,11111222 
WAVCIS,ioos:station:WAVCIS:CSI15:1,2009-12-02T14:00:00Z,28.8332,-90.8320,1001.265,11111222 
WAVCIS,ioos:station:WAVCIS:CSI15:1,2009-12-02T15:00:00Z,28.8332,-90.8320,1002.7,11111222 
WAVCIS,ioos:station:WAVCIS:CSI15:1,2009-12-02T16:00:00Z,28.8332,-90.8320,1003.438,11111222 
WAVCIS,ioos:station:WAVCIS:CSI15:1,2009-12-02T17:00:00Z,28.8332,-90.8320,1003.442,11111222 
WAVCIS,ioos:station:WAVCIS:CSI15:1,2009-12-02T18:00:00Z,28.8332,-90.8320,1003.494,11111222 
WAVCIS,ioos:station:WAVCIS:CSI15:1,2009-12-02T19:00:00Z,28.8332,-90.8320,1002.735,11111222 
WAVCIS,ioos:station:WAVCIS:CSI15:1,2009-12-02T20:00:00Z,28.8332,-90.8320,1002.942,11111222 
WAVCIS,ioos:station:WAVCIS:CSI15:1,2009-12-02T21:00:00Z,28.8332,-90.8320,1003.725,11111222 
WAVCIS,ioos:station:WAVCIS:CSI15:1,2009-12-02T22:00:00Z,28.8332,-90.8320,1004.411,11111222 
WAVCIS,ioos:station:WAVCIS:CSI15:1,2009-12-02T23:00:00Z,28.8332,-90.8320,1005.159,11111222 
WAVCIS,ioos:station:WAVCIS:CSI15:1,2009-12-03T00:00:00Z,28.8332,-90.8320,1006.218,11111222 
WAVCIS,ioos:station:WAVCIS:CSI15:1,2009-12-03T01:00:00Z,28.8332,-90.8320,1007.43,11111222 
WAVCIS,ioos:station:WAVCIS:CSI15:1,2009-12-03T02:00:00Z,28.8332,-90.8320,1008.54,11111222 
WAVCIS,ioos:station:WAVCIS:CSI15:1,2009-12-03T03:00:00Z,28.8332,-90.8320,1009.23,11111222 
WAVCIS,ioos:station:WAVCIS:CSI15:1,2009-12-03T04:00:00Z,28.8332,-90.8320,1010.41,11111222 
WAVCIS,ioos:station:WAVCIS:CSI15:1,2009-12-03T05:00:00Z,28.8332,-90.8320,1010.77,11111222 
WAVCIS,ioos:station:WAVCIS:CSI15:1,2009-12-03T06:00:00Z,28.8332,-90.8320,1010.68,11111222 
WAVCIS,ioos:station:WAVCIS:CSI15:1,2009-12-03T07:00:00Z,28.8332,-90.8320,1011.13,11111222 
WAVCIS,ioos:station:WAVCIS:CSI15:1,2009-12-03T08:00:00Z,28.8332,-90.8320,1011.79,11111222 
WAVCIS,ioos:station:WAVCIS:CSI15:1,2009-12-03T09:00:00Z,28.8332,-90.8320,1012.38,11111222 
WAVCIS,ioos:station:WAVCIS:CSI15:1,2009-12-03T10:00:00Z,28.8332,-90.8320,1013.01,11111222 
WAVCIS,ioos:station:WAVCIS:CSI15:1,2009-12-03T11:00:00Z,28.8332,-90.8320,1013.67,11111222 
WAVCIS,ioos:station:WAVCIS:CSI15:1,2009-12-03T12:00:00Z,28.8332,-90.8320,1014.31,11111222 
WAVCIS,ioos:station:WAVCIS:CSI15:1,2009-12-03T13:00:00Z,28.8332,-90.8320,1015.01,11111222 
WAVCIS,ioos:station:WAVCIS:CSI15:1,2009-12-03T14:00:00Z,28.8332,-90.8320,1015.95,11111222 
WAVCIS,ioos:station:WAVCIS:CSI15:1,2009-12-03T15:00:00Z,28.8332,-90.8320,1016.64,11111222 
WAVCIS,ioos:station:WAVCIS:CSI15:1,2009-12-03T16:00:00Z,28.8332,-90.8320,1017.32,11111222 
WAVCIS,ioos:station:WAVCIS:CSI15:1,2009-12-03T17:00:00Z,28.8332,-90.8320,1017.45,11111222 
WAVCIS,ioos:station:WAVCIS:CSI15:1,2009-12-03T18:00:00Z,28.8332,-90.8320,1016.99,11111222 
WAVCIS,ioos:station:WAVCIS:CSI15:1,2009-12-03T19:00:00Z,28.8332,-90.8320,1016.32,11111222 
WAVCIS,ioos:station:WAVCIS:CSI15:1,2009-12-03T20:00:00Z,28.8332,-90.8320,1016.28,11111222 
WAVCIS,ioos:station:WAVCIS:CSI15:1,2009-12-03T21:00:00Z,28.8332,-90.8320,1016.36,11111222 
WAVCIS,ioos:station:WAVCIS:CSI15:1,2009-12-03T22:00:00Z,28.8332,-90.8320,1016.5,11111222 
WAVCIS,ioos:station:WAVCIS:CSI15:1,2009-12-03T23:00:00Z,28.8332,-90.8320,1016.42,11111222 
WAVCIS,ioos:station:WAVCIS:CSI15:1,2009-12-04T00:00:00Z,28.8332,-90.8320,1016.3,11111222 
WAVCIS,ioos:station:WAVCIS:CSI15:1,2009-12-04T01:00:00Z,28.8332,-90.8320,1017.15,11111222 
WAVCIS,ioos:station:WAVCIS:CSI15:1,2009-12-04T02:00:00Z,28.8332,-90.8320,1018.23,11111222 
WAVCIS,ioos:station:WAVCIS:CSI15:1,2009-12-04T03:00:00Z,28.8332,-90.8320,1018.27,11111222 
WAVCIS,ioos:station:WAVCIS:CSI15:1,2009-12-04T04:00:00Z,28.8332,-90.8320,1017.9,11111222 
WAVCIS,ioos:station:WAVCIS:CSI15:1,2009-12-04T05:00:00Z,28.8332,-90.8320,1018.19,11111222 
WAVCIS,ioos:station:WAVCIS:CSI15:1,2009-12-04T06:00:00Z,28.8332,-90.8320,1018.3,11111222 
WAVCIS,ioos:station:WAVCIS:CSI15:1,2009-12-04T07:00:00Z,28.8332,-90.8320,1018.21,11111222 
WAVCIS,ioos:station:WAVCIS:CSI15:1,2009-12-04T08:00:00Z,28.8332,-90.8320,1017.75,11111222 
WAVCIS,ioos:station:WAVCIS:CSI15:1,2009-12-04T09:00:00Z,28.8332,-90.8320,1017.39,11111222 
WAVCIS,ioos:station:WAVCIS:CSI15:1,2009-12-04T10:00:00Z,28.8332,-90.8320,1017.1,11111222 
WAVCIS,ioos:station:WAVCIS:CSI15:1,2009-12-04T11:00:00Z,28.8332,-90.8320,1017.59,11111222 
WAVCIS,ioos:station:WAVCIS:CSI15:1,2009-12-04T12:00:00Z,28.8332,-90.8320,1017.49,11111222 
WAVCIS,ioos:station:WAVCIS:CSI15:1,2009-12-04T13:00:00Z,28.8332,-90.8320,1019.04,11111222 
WAVCIS,ioos:station:WAVCIS:CSI15:1,2009-12-04T14:00:00Z,28.8332,-90.8320,1019.48,11111222 
WAVCIS,ioos:station:WAVCIS:CSI15:1,2009-12-04T15:00:00Z,28.8332,-90.8320,1018.56,11111222 
WAVCIS,ioos:station:WAVCIS:CSI15:1,2009-12-04T16:00:00Z,28.8332,-90.8320,1018.62,11111222 
WAVCIS,ioos:station:WAVCIS:CSI15:1,2009-12-04T17:00:00Z,28.8332,-90.8320,1015.38,11111222 
WAVCIS,ioos:station:WAVCIS:CSI15:1,2009-12-04T18:00:00Z,28.8332,-90.8320,1015.54,11111222 
WAVCIS,ioos:station:WAVCIS:CSI15:1,2009-12-04T19:00:00Z,28.8332,-90.8320,1014.61,11111222 
WAVCIS,ioos:station:WAVCIS:CSI15:1,2009-12-04T20:00:00Z,28.8332,-90.8320,1013.89,11111222 
WAVCIS,ioos:station:WAVCIS:CSI15:1,2009-12-04T21:00:00Z,28.8332,-90.8320,1013.32,11111222 
WAVCIS,ioos:station:WAVCIS:CSI15:1,2009-12-04T22:00:00Z,28.8332,-90.8320,1014.65,11111222 
WAVCIS,ioos:station:WAVCIS:CSI15:1,2009-12-04T23:00:00Z,28.8332,-90.8320,1015.12,11111222 
WAVCIS,ioos:station:WAVCIS:CSI15:1,2009-12-05T00:00:00Z,28.8332,-90.8320,1014.61,11111222 
WAVCIS,ioos:station:WAVCIS:CSI15:1,2009-12-05T01:00:00Z,28.8332,-90.8320,1014.7,11111222 
WAVCIS,ioos:station:WAVCIS:CSI15:1,2009-12-05T02:00:00Z,28.8332,-90.8320,1016.35,11111222 
WAVCIS,ioos:station:WAVCIS:CSI15:1,2009-12-05T03:00:00Z,28.8332,-90.8320,1017.85,11111222 
WAVCIS,ioos:station:WAVCIS:CSI15:1,2009-12-05T04:00:00Z,28.8332,-90.8320,1018.21,11111222 
WAVCIS,ioos:station:WAVCIS:CSI15:1,2009-12-05T05:00:00Z,28.8332,-90.8320,1018.11,11111222 
WAVCIS,ioos:station:WAVCIS:CSI15:1,2009-12-05T06:00:00Z,28.8332,-90.8320,1018.37,11111222 
WAVCIS,ioos:station:WAVCIS:CSI15:1,2009-12-05T07:00:00Z,28.8332,-90.8320,1018.63,11111222 
WAVCIS,ioos:station:WAVCIS:CSI15:1,2009-12-05T08:00:00Z,28.8332,-90.8320,1019.0,11111222 
WAVCIS,ioos:station:WAVCIS:CSI15:1,2009-12-05T09:00:00Z,28.8332,-90.8320,1019.19,11111222 
WAVCIS,ioos:station:WAVCIS:CSI15:1,2009-12-05T10:00:00Z,28.8332,-90.8320,1019.72,11111222 
WAVCIS,ioos:station:WAVCIS:CSI15:1,2009-12-05T11:00:00Z,28.8332,-90.8320,1019.98,11111222 
WAVCIS,ioos:station:WAVCIS:CSI15:1,2009-12-05T12:00:00Z,28.8332,-90.8320,1020.36,11111222 
WAVCIS,ioos:station:WAVCIS:CSI15:1,2009-12-05T13:00:00Z,28.8332,-90.8320,1020.8,11111222 
WAVCIS,ioos:station:WAVCIS:CSI15:1,2009-12-05T14:00:00Z,28.8332,-90.8320,1021.18,11111222 
WAVCIS,ioos:station:WAVCIS:CSI15:1,2009-12-05T15:00:00Z,28.8332,-90.8320,1021.73,11111222 
WAVCIS,ioos:station:WAVCIS:CSI15:1,2009-12-05T16:00:00Z,28.8332,-90.8320,1021.82,11111222 
WAVCIS,ioos:station:WAVCIS:CSI15:1,2009-12-05T17:00:00Z,28.8332,-90.8320,1021.67,11111222 
WAVCIS,ioos:station:WAVCIS:CSI15:1,2009-12-05T18:00:00Z,28.8332,-90.8320,1020.74,11111222 
WAVCIS,ioos:station:WAVCIS:CSI15:1,2009-12-05T19:00:00Z,28.8332,-90.8320,1020.32,11111222 
WAVCIS,ioos:station:WAVCIS:CSI15:1,2009-12-05T20:00:00Z,28.8332,-90.8320,1020.32,11111222 
WAVCIS,ioos:station:WAVCIS:CSI15:1,2009-12-05T21:00:00Z,28.8332,-90.8320,1020.27,11111222 
WAVCIS,ioos:station:WAVCIS:CSI15:1,2009-12-05T22:00:00Z,28.8332,-90.8320,1020.04,11111222 
WAVCIS,ioos:station:WAVCIS:CSI15:1,2009-12-05T23:00:00Z,28.8332,-90.8320,1019.98,11111222 
WAVCIS,ioos:station:WAVCIS:CSI15:1,2009-12-06T00:00:00Z,28.8332,-90.8320,1019.74,11111222 
WAVCIS,ioos:station:WAVCIS:CSI15:1,2009-12-06T01:00:00Z,28.8332,-90.8320,1019.55,11111222 
WAVCIS,ioos:station:WAVCIS:CSI15:1,2009-12-06T02:00:00Z,28.8332,-90.8320,1019.68,11111222 
WAVCIS,ioos:station:WAVCIS:CSI15:1,2009-12-06T03:00:00Z,28.8332,-90.8320,1019.33,11111222 
WAVCIS,ioos:station:WAVCIS:CSI15:1,2009-12-06T04:00:00Z,28.8332,-90.8320,1019.73,11111222 
WAVCIS,ioos:station:WAVCIS:CSI15:1,2009-12-06T05:00:00Z,28.8332,-90.8320,1019.62,11111222 
WAVCIS,ioos:station:WAVCIS:CSI15:1,2009-12-06T06:00:00Z,28.8332,-90.8320,1019.21,11111222 
WAVCIS,ioos:station:WAVCIS:CSI15:1,2009-12-06T07:00:00Z,28.8332,-90.8320,1019.37,11111222 
WAVCIS,ioos:station:WAVCIS:CSI15:1,2009-12-06T08:00:00Z,28.8332,-90.8320,1019.63,11111222 
WAVCIS,ioos:station:WAVCIS:CSI15:1,2009-12-06T09:00:00Z,28.8332,-90.8320,1019.2,11111222 
WAVCIS,ioos:station:WAVCIS:CSI15:1,2009-12-06T10:00:00Z,28.8332,-90.8320,1018.63,11111222 
WAVCIS,ioos:station:WAVCIS:CSI15:1,2009-12-06T11:00:00Z,28.8332,-90.8320,1018.62,11111222 
WAVCIS,ioos:station:WAVCIS:CSI15:1,2009-12-06T12:00:00Z,28.8332,-90.8320,1018.36,11111222 
WAVCIS,ioos:station:WAVCIS:CSI15:1,2009-12-06T13:00:00Z,28.8332,-90.8320,1019.77,11111222 
WAVCIS,ioos:station:WAVCIS:CSI15:1,2009-12-06T14:00:00Z,28.8332,-90.8320,1019.74,11111222 
WAVCIS,ioos:station:WAVCIS:CSI15:1,2009-12-06T15:00:00Z,28.8332,-90.8320,1019.42,11111222 
WAVCIS,ioos:station:WAVCIS:CSI15:1,2009-12-06T16:00:00Z,28.8332,-90.8320,1019.62,11111222 
WAVCIS,ioos:station:WAVCIS:CSI15:1,2009-12-06T17:00:00Z,28.8332,-90.8320,1019.02,11111222 
WAVCIS,ioos:station:WAVCIS:CSI15:1,2009-12-06T18:00:00Z,28.8332,-90.8320,1017.56,11111222 
WAVCIS,ioos:station:WAVCIS:CSI15:1,2009-12-06T19:00:00Z,28.8332,-90.8320,1016.55,11111222 
WAVCIS,ioos:station:WAVCIS:CSI15:1,2009-12-06T20:00:00Z,28.8332,-90.8320,1016.21,11111222 
WAVCIS,ioos:station:WAVCIS:CSI15:1,2009-12-06T21:00:00Z,28.8332,-90.8320,1016.18,11111222 
WAVCIS,ioos:station:WAVCIS:CSI15:1,2009-12-06T22:00:00Z,28.8332,-90.8320,1016.39,11111222 
WAVCIS,ioos:station:WAVCIS:CSI15:1,2009-12-06T23:00:00Z,28.8332,-90.8320,1016.23,11111222 
WAVCIS,ioos:station:WAVCIS:CSI15:1,2009-12-07T00:00:00Z,28.8332,-90.8320,1016.0,11111222 
WAVCIS,ioos:station:WAVCIS:CSI15:1,2009-12-07T01:00:00Z,28.8332,-90.8320,1015.42,11111222 
WAVCIS,ioos:station:WAVCIS:CSI15:1,2009-12-07T02:00:00Z,28.8332,-90.8320,1016.17,11111222 
WAVCIS,ioos:station:WAVCIS:CSI15:1,2009-12-07T03:00:00Z,28.8332,-90.8320,1016.04,11111222 
WAVCIS,ioos:station:WAVCIS:CSI15:1,2009-12-07T04:00:00Z,28.8332,-90.8320,1015.98,11111222 
WAVCIS,ioos:station:WAVCIS:CSI15:1,2009-12-07T05:00:00Z,28.8332,-90.8320,1015.59,11111222 
WAVCIS,ioos:station:WAVCIS:CSI15:1,2009-12-07T06:00:00Z,28.8332,-90.8320,1015.25,11111222 
WAVCIS,ioos:station:WAVCIS:CSI15:1,2009-12-07T07:00:00Z,28.8332,-90.8320,1014.67,11111222 
WAVCIS,ioos:station:WAVCIS:CSI15:1,2009-12-07T08:00:00Z,28.8332,-90.8320,1014.76,11111222 
WAVCIS,ioos:station:WAVCIS:CSI15:1,2009-12-07T09:00:00Z,28.8332,-90.8320,1014.55,11111222 
WAVCIS,ioos:station:WAVCIS:CSI15:1,2009-12-07T10:00:00Z,28.8332,-90.8320,1014.5,11111222 
WAVCIS,ioos:station:WAVCIS:CSI15:1,2009-12-07T11:00:00Z,28.8332,-90.8320,1014.59,11111222 
WAVCIS,ioos:station:WAVCIS:CSI15:1,2009-12-07T12:00:00Z,28.8332,-90.8320,1015.15,11111222 
WAVCIS,ioos:station:WAVCIS:CSI15:1,2009-12-07T13:00:00Z,28.8332,-90.8320,1015.13,11111222 
WAVCIS,ioos:station:WAVCIS:CSI15:1,2009-12-07T14:00:00Z,28.8332,-90.8320,1016.19,11111222 
WAVCIS,ioos:station:WAVCIS:CSI15:1,2009-12-07T15:00:00Z,28.8332,-90.8320,1016.66,11111222 
WAVCIS,ioos:station:WAVCIS:CSI15:1,2009-12-07T16:00:00Z,28.8332,-90.8320,1017.09,11111222 
WAVCIS,ioos:station:WAVCIS:CSI15:1,2009-12-07T17:00:00Z,28.8332,-90.8320,1016.02,11111222 
WAVCIS,ioos:station:WAVCIS:CSI15:1,2009-12-07T18:00:00Z,28.8332,-90.8320,1015.64,11111222 
WAVCIS,ioos:station:WAVCIS:CSI15:1,2009-12-07T19:00:00Z,28.8332,-90.8320,1014.19,11111222 
WAVCIS,ioos:station:WAVCIS:CSI15:1,2009-12-07T20:00:00Z,28.8332,-90.8320,1013.7,11111222 
WAVCIS,ioos:station:WAVCIS:CSI15:1,2009-12-07T21:00:00Z,28.8332,-90.8320,1013.84,11111222 
WAVCIS,ioos:station:WAVCIS:CSI15:1,2009-12-07T22:00:00Z,28.8332,-90.8320,1013.58,11111222 
WAVCIS,ioos:station:WAVCIS:CSI15:1,2009-12-07T23:00:00Z,28.8332,-90.8320,1013.81,11111222 
WAVCIS,ioos:station:WAVCIS:CSI15:1,2009-12-08T00:00:00Z,28.8332,-90.8320,1014.07,11111222 
WAVCIS,ioos:station:WAVCIS:CSI15:1,2009-12-08T01:00:00Z,28.8332,-90.8320,1014.05,11111222 
WAVCIS,ioos:station:WAVCIS:CSI15:1,2009-12-08T02:00:00Z,28.8332,-90.8320,1014.08,11111222 
WAVCIS,ioos:station:WAVCIS:CSI15:1,2009-12-08T03:00:00Z,28.8332,-90.8320,1013.5,11111222 
WAVCIS,ioos:station:WAVCIS:CSI15:1,2009-12-08T04:00:00Z,28.8332,-90.8320,1013.78,11111222 
WAVCIS,ioos:station:WAVCIS:CSI15:1,2009-12-08T05:00:00Z,28.8332,-90.8320,1013.22,11111222 
WAVCIS,ioos:station:WAVCIS:CSI15:1,2009-12-08T06:00:00Z,28.8332,-90.8320,1011.59,11111222 
WAVCIS,ioos:station:WAVCIS:CSI15:1,2009-12-08T07:00:00Z,28.8332,-90.8320,1010.98,11111222 
WAVCIS,ioos:station:WAVCIS:CSI15:1,2009-12-08T08:00:00Z,28.8332,-90.8320,1010.44,11111222 
WAVCIS,ioos:station:WAVCIS:CSI15:1,2009-12-08T09:00:00Z,28.8332,-90.8320,1010.79,11111222 
WAVCIS,ioos:station:WAVCIS:CSI15:1,2009-12-09T00:00:00Z,28.8332,-90.8320,1004.197,11111222 
WAVCIS,ioos:station:WAVCIS:CSI15:1,2009-12-09T01:00:00Z,28.8332,-90.8320,1004.568,11111222 
WAVCIS,ioos:station:WAVCIS:CSI15:1,2009-12-09T02:00:00Z,28.8332,-90.8320,1005.228,11111222 
WAVCIS,ioos:station:WAVCIS:CSI15:1,2009-12-09T03:00:00Z,28.8332,-90.8320,1005.296,11111222 
WAVCIS,ioos:station:WAVCIS:CSI15:1,2009-12-09T04:00:00Z,28.8332,-90.8320,1005.304,11111222 
WAVCIS,ioos:station:WAVCIS:CSI15:1,2009-12-09T05:00:00Z,28.8332,-90.8320,1005.703,11111222 
WAVCIS,ioos:station:WAVCIS:CSI15:1,2009-12-09T06:00:00Z,28.8332,-90.8320,1005.187,11111222 
WAVCIS,ioos:station:WAVCIS:CSI15:1,2009-12-09T07:00:00Z,28.8332,-90.8320,1005.841,11111222 
WAVCIS,ioos:station:WAVCIS:CSI15:1,2009-12-09T08:00:00Z,28.8332,-90.8320,1005.532,11111222 
WAVCIS,ioos:station:WAVCIS:CSI15:1,2009-12-09T09:00:00Z,28.8332,-90.8320,1005.725,11111222 
WAVCIS,ioos:station:WAVCIS:CSI15:1,2009-12-09T10:00:00Z,28.8332,-90.8320,1005.948,11111222 
WAVCIS,ioos:station:WAVCIS:CSI15:1,2009-12-09T11:00:00Z,28.8332,-90.8320,1005.791,11111222 
WAVCIS,ioos:station:WAVCIS:CSI15:1,2009-12-09T12:00:00Z,28.8332,-90.8320,1006.036,11111222 
WAVCIS,ioos:station:WAVCIS:CSI15:1,2009-12-09T13:00:00Z,28.8332,-90.8320,1006.668,11111222 
WAVCIS,ioos:station:WAVCIS:CSI15:1,2009-12-09T14:00:00Z,28.8332,-90.8320,1007.166,11111222 
WAVCIS,ioos:station:WAVCIS:CSI15:1,2009-12-09T15:00:00Z,28.8332,-90.8320,1007.37,11111222 
WAVCIS,ioos:station:WAVCIS:CSI15:1,2009-12-09T16:00:00Z,28.8332,-90.8320,1007.46,11111222 
WAVCIS,ioos:station:WAVCIS:CSI15:1,2009-12-09T17:00:00Z,28.8332,-90.8320,1007.331,11111222 
WAVCIS,ioos:station:WAVCIS:CSI15:1,2009-12-09T18:00:00Z,28.8332,-90.8320,1006.397,11111222 
WAVCIS,ioos:station:WAVCIS:CSI15:1,2009-12-09T19:00:00Z,28.8332,-90.8320,1005.841,11111222 
WAVCIS,ioos:station:WAVCIS:CSI15:1,2009-12-09T20:00:00Z,28.8332,-90.8320,1006.113,11111222 
WAVCIS,ioos:station:WAVCIS:CSI15:1,2009-12-09T21:00:00Z,28.8332,-90.8320,1006.734,11111222 
WAVCIS,ioos:station:WAVCIS:CSI15:1,2009-12-09T22:00:00Z,28.8332,-90.8320,1007.59,11111222 
WAVCIS,ioos:station:WAVCIS:CSI15:1,2009-12-09T23:00:00Z,28.8332,-90.8320,1008.22,11111222 
WAVCIS,ioos:station:WAVCIS:CSI15:1,2009-12-10T00:00:00Z,28.8332,-90.8320,1009.24,11111222 
WAVCIS,ioos:station:WAVCIS:CSI15:1,2009-12-10T01:00:00Z,28.8332,-90.8320,1010.02,11111222 
WAVCIS,ioos:station:WAVCIS:CSI15:1,2009-12-10T02:00:00Z,28.8332,-90.8320,1010.46,11111222 
WAVCIS,ioos:station:WAVCIS:CSI15:1,2009-12-10T03:00:00Z,28.8332,-90.8320,1011.09,11111222 
WAVCIS,ioos:station:WAVCIS:CSI15:1,2009-12-10T04:00:00Z,28.8332,-90.8320,1011.47,11111222 
WAVCIS,ioos:station:WAVCIS:CSI15:1,2009-12-10T05:00:00Z,28.8332,-90.8320,1011.54,11111222 
WAVCIS,ioos:station:WAVCIS:CSI15:1,2009-12-10T06:00:00Z,28.8332,-90.8320,1011.63,11111222 
WAVCIS,ioos:station:WAVCIS:CSI15:1,2009-12-10T07:00:00Z,28.8332,-90.8320,1011.58,11111222 
WAVCIS,ioos:station:WAVCIS:CSI15:1,2009-12-10T08:00:00Z,28.8332,-90.8320,1012.4,11111222 
WAVCIS,ioos:station:WAVCIS:CSI15:1,2009-12-10T09:00:00Z,28.8332,-90.8320,1013.21,11111222 
WAVCIS,ioos:station:WAVCIS:CSI15:1,2009-12-10T10:00:00Z,28.8332,-90.8320,1013.13,11111222 
WAVCIS,ioos:station:WAVCIS:CSI15:1,2009-12-10T11:00:00Z,28.8332,-90.8320,1013.91,11111222 
WAVCIS,ioos:station:WAVCIS:CSI15:1,2009-12-10T12:00:00Z,28.8332,-90.8320,1014.03,11111222 
WAVCIS,ioos:station:WAVCIS:CSI15:1,2009-12-10T13:00:00Z,28.8332,-90.8320,1015.42,11111222 
WAVCIS,ioos:station:WAVCIS:CSI15:1,2009-12-10T14:00:00Z,28.8332,-90.8320,1016.42,11111222 
WAVCIS,ioos:station:WAVCIS:CSI15:1,2009-12-10T15:00:00Z,28.8332,-90.8320,1017.41,11111222 
WAVCIS,ioos:station:WAVCIS:CSI15:1,2009-12-10T16:00:00Z,28.8332,-90.8320,1018.56,11111222 
WAVCIS,ioos:station:WAVCIS:CSI15:1,2009-12-10T17:00:00Z,28.8332,-90.8320,1018.11,11111222 
WAVCIS,ioos:station:WAVCIS:CSI15:1,2009-12-10T18:00:00Z,28.8332,-90.8320,1017.67,11111222 
WAVCIS,ioos:station:WAVCIS:CSI15:1,2009-12-10T19:00:00Z,28.8332,-90.8320,1016.71,11111222 
WAVCIS,ioos:station:WAVCIS:CSI15:1,2009-12-10T20:00:00Z,28.8332,-90.8320,1016.62,11111222 
WAVCIS,ioos:station:WAVCIS:CSI15:1,2009-12-10T21:00:00Z,28.8332,-90.8320,1017.29,11111222 
WAVCIS,ioos:station:WAVCIS:CSI15:1,2009-12-10T22:00:00Z,28.8332,-90.8320,1017.44,11111222 
WAVCIS,ioos:station:WAVCIS:CSI15:1,2009-12-10T23:00:00Z,28.8332,-90.8320,1018.02,11111222 
WAVCIS,ioos:station:WAVCIS:CSI15:1,2009-12-11T00:00:00Z,28.8332,-90.8320,1018.46,11111222 
WAVCIS,ioos:station:WAVCIS:CSI15:1,2009-12-11T01:00:00Z,28.8332,-90.8320,1019.12,11111222 
WAVCIS,ioos:station:WAVCIS:CSI15:1,2009-12-11T02:00:00Z,28.8332,-90.8320,1019.73,11111222 
WAVCIS,ioos:station:WAVCIS:CSI15:1,2009-12-11T03:00:00Z,28.8332,-90.8320,1019.9,11111222 
WAVCIS,ioos:station:WAVCIS:CSI15:1,2009-12-11T04:00:00Z,28.8332,-90.8320,1019.67,11111222 
WAVCIS,ioos:station:WAVCIS:CSI15:1,2009-12-11T05:00:00Z,28.8332,-90.8320,1019.7,11111222 
WAVCIS,ioos:station:WAVCIS:CSI15:1,2009-12-11T06:00:00Z,28.8332,-90.8320,1019.88,11111222 
WAVCIS,ioos:station:WAVCIS:CSI15:1,2009-12-11T07:00:00Z,28.8332,-90.8320,1019.66,11111222 
WAVCIS,ioos:station:WAVCIS:CSI15:1,2009-12-11T08:00:00Z,28.8332,-90.8320,1019.43,11111222 
WAVCIS,ioos:station:WAVCIS:CSI15:1,2009-12-11T09:00:00Z,28.8332,-90.8320,1019.57,11111222 
WAVCIS,ioos:station:WAVCIS:CSI15:1,2009-12-11T10:00:00Z,28.8332,-90.8320,1019.57,11111222 
WAVCIS,ioos:station:WAVCIS:CSI15:1,2009-12-11T11:00:00Z,28.8332,-90.8320,1019.01,11111222 
WAVCIS,ioos:station:WAVCIS:CSI15:1,2009-12-11T12:00:00Z,28.8332,-90.8320,1019.08,11111222 
WAVCIS,ioos:station:WAVCIS:CSI15:1,2009-12-11T13:00:00Z,28.8332,-90.8320,1019.23,11111222 
WAVCIS,ioos:station:WAVCIS:CSI15:1,2009-12-11T14:00:00Z,28.8332,-90.8320,1020.47,11111222 
WAVCIS,ioos:station:WAVCIS:CSI15:1,2009-12-11T15:00:00Z,28.8332,-90.8320,1021.28,11111222 
WAVCIS,ioos:station:WAVCIS:CSI15:1,2009-12-11T16:00:00Z,28.8332,-90.8320,1021.52,11111222 
WAVCIS,ioos:station:WAVCIS:CSI15:1,2009-12-11T17:00:00Z,28.8332,-90.8320,1021.2,11111222 
WAVCIS,ioos:station:WAVCIS:CSI15:1,2009-12-11T18:00:00Z,28.8332,-90.8320,1020.04,11111222 
WAVCIS,ioos:station:WAVCIS:CSI15:1,2009-12-11T19:00:00Z,28.8332,-90.8320,1019.63,11111222 
WAVCIS,ioos:station:WAVCIS:CSI15:1,2009-12-11T20:00:00Z,28.8332,-90.8320,1019.43,11111222 
WAVCIS,ioos:station:WAVCIS:CSI15:1,2009-12-11T21:00:00Z,28.8332,-90.8320,1019.45,11111222 
WAVCIS,ioos:station:WAVCIS:CSI15:1,2009-12-11T22:00:00Z,28.8332,-90.8320,1019.35,11111222 
WAVCIS,ioos:station:WAVCIS:CSI15:1,2009-12-11T23:00:00Z,28.8332,-90.8320,1018.89,11111222 
WAVCIS,ioos:station:WAVCIS:CSI15:1,2009-12-12T00:00:00Z,28.8332,-90.8320,1018.59,11111222 
WAVCIS,ioos:station:WAVCIS:CSI15:1,2009-12-12T01:00:00Z,28.8332,-90.8320,1019.7,11111222 
WAVCIS,ioos:station:WAVCIS:CSI15:1,2009-12-12T02:00:00Z,28.8332,-90.8320,1018.87,11111222 
WAVCIS,ioos:station:WAVCIS:CSI15:1,2009-12-12T03:00:00Z,28.8332,-90.8320,1019.26,11111222 
WAVCIS,ioos:station:WAVCIS:CSI15:1,2009-12-12T04:00:00Z,28.8332,-90.8320,1017.96,11111222 
WAVCIS,ioos:station:WAVCIS:CSI15:1,2009-12-12T05:00:00Z,28.8332,-90.8320,1018.44,11111222 
WAVCIS,ioos:station:WAVCIS:CSI15:1,2009-12-12T06:00:00Z,28.8332,-90.8320,1018.96,11111222 
WAVCIS,ioos:station:WAVCIS:CSI15:1,2009-12-12T07:00:00Z,28.8332,-90.8320,1017.96,11111222 
WAVCIS,ioos:station:WAVCIS:CSI15:1,2009-12-12T08:00:00Z,28.8332,-90.8320,1017.75,11111222 
WAVCIS,ioos:station:WAVCIS:CSI15:1,2009-12-12T09:00:00Z,28.8332,-90.8320,1017.31,11111222 
WAVCIS,ioos:station:WAVCIS:CSI15:1,2009-12-12T10:00:00Z,28.8332,-90.8320,1016.64,11111222 
WAVCIS,ioos:station:WAVCIS:CSI15:1,2009-12-12T11:00:00Z,28.8332,-90.8320,1017.0,11111222 